Starlink 4372

operational
NORAD ID: 53233 Int'l Des: 2022-084 Owner: SPXS Country: US Constellation: starlink
LEOCIRCULARRETROGRADESSO

About Starlink 4372

Description loading...

Live Position

Loading 3D Globe...

Upcoming Passes

Altitude History

Altitude vs Time

uPlot chart will show altitude changes over time

Two-Line Element Set

1 53233U 22084AW 25305.40884505 -.00005376 00000-0 -41450-3 0 9991
2 53233 97.6033 4.6155 0002132 208.3892 151.7217 15.01243904180076
Epoch: Nov 1, 2025 • Age: 27 hours

Current Status

Altitude 580.4 km
Velocity 7.57 km/s
Sub-Earth Point -43.41°S, 138.7°E
Launch Date Jul 22, 2022
Age 3.2 years
Type internet

Technical Details

Classification Payload
Mass 297.00 kg
Dry Mass 275.00 kg
Total Mass 297.00 kg
Length 0.20 m
Diameter 2.80 m
Span 9.00 m
Shape Box + pan
Manufacturer SPXS
Bus Type Starlink
Phase Status In Orbit
Owner/State SPXS/US

Large Constellations

Loading constellations...